Unser Platzwetter:
(um das Bild zu aktualisieren oder bei unvollständig geladenem Bild den Reload-Button des Browsers drücken)

 

 
[Quelle: ADDS]
METAR
ETNN 150720Z 16007KT 9999 BKN140 16/08 Q1012 BLU =
TAF
SR / SS: 05:56 / 16:40 UTC (Vettweiss-Soller 2018-10-15)
 

Hier gibt es ein Wetterdiagramm der letzten 7 Tage.

Hier geht es zu unserer Webcam.

Satelitenbild:

aktuelles Meteosat-Bild von www.wetterzentrale.de